Date,TemperatureHighF,TemperatureAvgF,TemperatureLowF,DewpointHighF,DewpointAvgF,DewpointLowF,HumidityHigh,HumidityAvg,HumidityLow,PressureMaxIn,PressureMinIn,WindSpeedMaxMPH,WindSpeedAvgMPH,GustSpeedMaxMPH,PrecipitationSumIn
2013-1-1,49.1,38.9,30.2,36.3,29.0,21.6,76,67,58,30.08,29.99,23,5,23,0.00
2013-1-2,51.1,36.9,26.2,37.0,27.2,18.6,77,68,57,30.04,29.94,18,3,18,0.00
2013-1-3,58.1,39.2,26.6,41.9,30.2,18.8,79,70,54,30.07,29.92,20,5,20,0.00
2013-1-4,54.3,42.7,32.3,37.6,31.6,24.7,77,65,49,30.10,29.99,18,5,18,0.00
2013-1-5,58.6,43.2,30.7,44.9,34.5,23.3,82,72,57,30.07,29.88,20,4,20,0.00
2013-1-6,45.7,41.6,32.3,40.9,36.4,26.8,85,82,78,29.99,29.85,25,5,25,0.00
2013-1-7,53.6,40.1,30.9,44.7,34.3,25.8,88,80,68,30.06,29.94,15,2,15,0.00
2013-1-8,57.9,45.2,34.7,44.3,36.9,29.2,83,73,59,30.05,29.94,16,3,16,0.00
2013-1-9,50.2,41.3,33.8,44.5,35.3,28.0,87,79,73,29.95,29.79,21,5,21,0.00
2013-1-10,50.9,39.3,32.5,35.6,30.1,25.4,80,70,51,29.96,29.85,18,4,18,0.00
2013-1-11,47.8,37.8,26.6,35.3,28.2,19.2,77,68,53,30.05,29.92,14,2,14,0.00
2013-1-12,47.3,38.1,29.8,29.2,25.9,20.8,74,62,45,30.05,29.93,17,3,17,0.00
2013-1-13,55.9,35.6,23.0,29.8,20.2,14.7,72,55,33,30.05,29.96,25,3,25,0.00
2013-1-14,46.9,37.3,28.7,25.4,19.1,14.4,60,48,40,30.20,30.00,28,5,28,0.00
2013-1-15,48.2,36.2,24.6,30.4,22.6,14.3,70,58,45,30.26,30.16,21,4,21,0.00
2013-1-16,53.0,42.4,33.2,34.2,28.6,22.4,69,58,49,30.23,30.07,21,6,21,0.00
2013-1-17,56.8,47.3,39.5,37.3,31.3,27.2,61,54,44,30.08,29.98,23,7,23,0.00
2013-1-18,63.3,48.9,35.2,36.2,31.1,20.8,65,51,34,30.06,29.96,22,6,22,0.00
2013-1-19,64.2,44.5,28.9,41.3,28.4,16.8,74,54,41,30.09,29.97,20,4,20,0.00
2013-1-20,59.0,42.9,28.0,38.3,26.7,17.3,76,54,35,30.05,29.96,24,4,24,0.00
2013-1-21,56.8,44.3,28.7,39.9,31.0,17.0,70,59,51,30.01,29.91,21,5,21,0.00
2013-1-22,57.7,49.1,39.5,42.2,36.6,28.0,67,62,56,29.94,29.84,25,6,25,0.00
2013-1-23,54.5,47.4,42.4,44.9,39.2,33.2,80,73,63,29.92,29.77,26,2,26,0.00
2013-1-24,51.2,49.6,47.8,45.6,44.0,41.3,84,81,78,30.02,29.89,36,7,36,0.00
2013-1-25,65.1,54.5,49.1,55.2,47.9,42.9,85,78,70,30.01,29.87,36,4,36,0.00
2013-1-26,56.5,49.2,42.6,48.2,40.9,34.8,89,73,51,29.87,29.81,27,9,27,0.00
2013-1-27,56.8,43.8,34.1,37.8,32.6,26.7,79,66,45,29.97,29.86,20,3,21,0.00
2013-1-28,56.1,43.2,32.2,39.6,32.9,24.6,78,67,53,30.10,29.94,33,3,33,0.00
2013-1-29,56.8,44.7,34.1,42.7,34.9,26.9,81,69,58,30.17,30.07,14,2,14,0.00
2013-1-30,60.8,49.5,38.8,42.3,36.6,28.1,75,62,48,30.18,30.07,23,4,23,0.00
2013-1-31,62.2,47.4,33.2,45.1,35.6,25.1,77,64,53,30.12,29.99,20,4,20,0.00
2013-2-1,62.8,49.4,38.8,46.7,38.7,30.5,79,67,54,30.04,29.96,18,4,18,0.00
2013-2-2,63.7,49.9,38.8,48.8,39.6,30.6,81,68,57,30.11,30.01,16,2,16,0.00
2013-2-3,63.3,48.9,38.3,46.6,39.1,29.6,79,69,53,30.07,29.96,13,3,13,0.00
2013-2-4,66.5,47.7,32.2,49.3,37.8,24.7,82,69,52,30.00,29.88,12,1,12,0.00
2013-2-5,53.6,46.6,41.0,43.4,40.7,36.8,88,80,65,29.95,29.88,21,9,21,0.00
2013-2-6,62.2,46.5,32.3,44.8,37.5,27.7,89,72,49,30.01,29.92,16,2,16,0.00
2013-2-7,53.9,42.4,32.9,42.0,33.5,25.2,81,71,57,29.99,29.80,24,5,24,0.00
2013-2-8,52.3,41.2,32.3,38.7,32.9,24.3,79,72,59,29.82,29.73,21,4,21,0.00
2013-2-9,59.5,43.4,31.1,33.5,27.6,20.6,75,55,37,29.90,29.76,29,6,29,0.00
2013-2-10,58.4,41.3,26.8,38.2,27.6,16.8,73,58,45,29.93,29.84,25,3,25,0.00
2013-2-11,61.7,43.2,29.3,34.6,27.4,19.7,74,55,35,30.03,29.86,19,3,19,0.00
2013-2-12,58.6,42.4,28.9,38.9,28.7,18.3,72,59,46,30.18,30.03,18,3,18,0.00
2013-2-13,63.1,45.2,30.2,41.9,31.6,20.3,77,60,43,30.15,30.03,21,2,21,0.00
2013-2-14,63.7,48.1,33.4,43.8,34.5,23.7,77,60,47,30.08,30.01,28,5,28,0.00
2013-2-15,67.8,50.6,35.0,47.8,36.8,25.4,72,60,47,30.12,30.02,18,3,18,0.00
2013-2-16,67.1,49.2,35.6,47.4,36.2,25.4,79,61,46,30.07,29.85,16,2,16,0.00
2013-2-17,62.8,48.4,36.1,44.0,35.5,26.9,83,62,43,29.88,29.80,20,4,20,0.00
2013-2-18,50.2,43.8,34.3,40.2,33.7,23.8,74,67,62,29.86,29.77,28,9,28,0.00
2013-2-19,46.7,41.4,35.2,37.6,33.5,27.8,79,73,65,29.78,29.54,33,7,33,0.00
2013-2-20,57.4,41.9,28.0,38.6,30.7,21.4,83,66,43,29.87,29.62,19,3,19,0.00
2013-2-21,56.8,43.0,33.4,38.4,31.2,24.7,80,64,44,29.98,29.84,37,4,37,0.00
2013-2-22,62.2,45.3,30.2,41.2,32.2,22.3,78,61,42,30.07,29.96,20,2,20,0.00
2013-2-23,60.8,49.4,41.2,41.1,34.5,25.0,82,59,37,30.06,29.97,27,9,27,0.00
2013-2-24,59.3,47.3,35.2,32.0,26.8,20.9,57,45,34,30.08,29.99,26,6,26,0.00
2013-2-25,62.2,44.4,29.3,43.8,30.2,17.8,70,57,47,30.08,29.99,19,2,19,0.00
2013-2-26,64.6,46.9,29.8,34.5,27.9,19.9,70,50,31,30.04,29.97,27,4,27,0.00
2013-2-27,66.7,48.4,30.9,42.2,31.0,18.3,71,52,38,30.19,30.01,11,0,11,0.00
2013-2-28,68.3,52.3,38.1,51.3,39.5,26.4,76,62,52,30.28,30.17,16,2,16,0.00
2013-3-1,70.9,54.0,38.1,50.6,40.6,29.4,84,61,46,30.26,30.07,20,3,20,0.00
2013-3-2,72.1,56.3,43.3,54.3,43.9,33.2,79,63,51,30.07,29.91,16,2,16,0.00
2013-3-3,63.7,54.5,46.7,47.6,42.8,36.2,80,65,52,29.94,29.87,25,6,25,0.00
2013-3-4,60.4,49.6,40.6,47.5,40.1,31.3,78,70,60,29.97,29.87,19,5,19,0.00
2013-3-5,59.7,48.5,37.0,42.6,36.5,28.5,78,64,49,29.88,29.67,30,10,30,0.00
2013-3-6,55.0,48.5,38.1,40.7,37.5,28.4,77,66,54,29.90,29.67,28,8,28,0.00
2013-3-7,57.4,44.8,33.2,39.7,34.0,24.7,81,66,48,29.81,29.67,15,2,15,0.00
2013-3-8,59.2,49.1,42.8,42.3,38.5,35.0,80,67,49,29.87,29.63,25,7,25,0.00
2013-3-9,67.4,50.9,37.7,42.0,36.4,27.2,81,60,33,30.14,29.87,28,5,28,0.00
2013-3-10,66.2,49.4,32.3,40.7,32.7,22.8,77,54,35,30.17,30.07,22,4,22,0.00
2013-3-11,71.9,52.6,34.1,47.1,36.0,23.8,74,54,38,30.08,29.95,21,2,21,0.00
2013-3-12,72.8,55.0,38.5,49.9,39.6,27.5,75,57,44,29.99,29.92,17,2,17,0.00
2013-3-13,75.4,58.2,40.1,55.0,43.3,30.1,74,58,45,30.00,29.93,18,3,18,0.00
2013-3-14,75.4,57.6,44.2,56.7,44.7,34.7,82,62,49,30.01,29.91,16,2,16,0.00
2013-3-15,71.0,54.9,41.5,52.0,41.0,31.4,76,60,47,29.97,29.89,13,1,15,0.00
2013-3-16,72.3,55.3,43.1,51.0,41.6,33.3,80,61,39,29.94,29.87,18,3,18,0.00
2013-3-17,69.8,53.1,36.8,44.9,37.5,27.1,79,57,35,29.98,29.89,15,1,15,0.00
2013-3-18,67.6,52.4,36.8,46.4,37.1,26.2,70,56,40,29.97,29.86,16,1,16,0.00
2013-3-19,72.1,54.7,43.0,48.3,39.8,32.8,75,58,41,29.99,29.89,18,2,18,0.00
2013-3-20,63.1,55.5,49.4,50.9,46.0,40.8,76,70,58,29.97,29.90,21,5,21,0.00
2013-3-21,65.3,53.3,43.0,45.6,40.1,31.2,77,62,42,29.96,29.85,25,6,25,0.00
2013-3-22,65.6,51.0,36.5,31.2,27.4,21.6,70,43,27,29.94,29.84,40,9,40,0.00
2013-3-23,71.0,51.6,34.7,37.0,27.8,18.4,56,41,26,29.99,29.89,21,3,22,0.00
2013-3-24,74.5,53.5,34.7,45.5,33.9,21.1,71,48,33,29.93,29.82,15,1,15,0.00
2013-3-25,64.0,50.0,37.7,44.4,36.1,26.1,76,59,45,29.86,29.77,21,5,21,0.00
2013-3-26,70.3,54.5,44.2,47.9,40.7,34.0,76,61,43,29.84,29.78,15,4,15,0.00
2013-3-27,68.0,55.3,43.1,50.3,42.6,33.3,75,62,52,29.86,29.77,27,7,27,0.00
2013-3-28,71.9,60.4,50.9,51.8,47.1,41.9,76,62,48,29.93,29.84,15,3,15,0.00
2013-3-29,75.7,62.1,50.9,53.8,47.2,40.1,70,59,45,29.94,29.87,27,5,27,0.00
2013-3-30,70.5,59.9,53.2,53.2,46.6,41.1,75,62,44,29.92,29.82,36,4,36,0.00
2013-3-31,68.3,58.2,48.5,51.2,46.8,40.2,79,66,52,29.93,29.84,24,3,24,0.00
2013-4-1,64.9,57.4,49.1,52.2,46.7,39.5,79,67,59,30.00,29.89,19,2,19,0.00
2013-4-2,72.5,55.7,40.6,53.4,44.2,33.0,82,66,50,30.02,29.92,15,1,15,0.00
2013-4-3,75.4,58.7,43.1,52.7,44.4,34.3,83,60,44,29.98,29.84,16,1,16,0.00
2013-4-4,65.3,58.0,50.9,53.2,47.6,41.9,75,68,60,29.95,29.82,21,6,21,0.00
2013-4-5,65.3,56.9,50.3,49.9,46.2,42.1,80,67,54,30.03,29.95,24,6,24,0.00
2013-4-6,64.7,56.4,50.5,51.7,46.7,42.1,77,70,59,30.04,29.97,19,5,19,0.00
2013-4-7,64.7,55.0,48.4,51.7,45.6,41.7,81,71,56,30.01,29.67,30,10,30,0.00
2013-4-8,64.6,52.7,41.7,44.6,36.7,32.5,81,57,34,29.84,29.61,44,14,44,0.00
2013-4-9,72.3,60.2,47.5,38.8,34.6,30.5,57,39,29,29.94,29.83,38,17,38,0.06
2013-4-10,84.5,64.7,45.1,53.5,42.2,29.5,63,45,32,30.05,29.90,23,5,23,0.00
2013-4-11,71.8,58.0,47.6,49.3,43.2,35.5,77,59,43,29.90,29.70,19,4,19,0.00
2013-4-12,78.8,57.7,39.9,49.8,39.7,29.2,78,53,34,29.76,29.69,18,3,18,0.00
2013-4-13,68.9,54.5,43.7,48.2,39.1,30.8,78,57,45,29.75,29.68,25,5,25,0.00
2013-4-14,67.6,53.1,39.5,42.6,36.7,29.0,70,55,35,29.77,29.69,30,8,30,0.00
2013-4-15,59.3,51.2,44.9,42.5,37.4,32.1,78,61,39,29.78,29.68,50,14,50,0.00
2013-4-16,66.2,51.3,33.2,35.3,28.5,22.4,73,45,25,29.98,29.77,38,9,38,0.00
2013-4-17,68.2,57.4,48.5,30.7,27.6,23.3,42,33,24,30.11,29.98,33,13,33,0.00
2013-4-18,75.5,56.9,36.1,41.2,30.4,18.2,54,38,25,30.13,30.03,24,5,24,0.00
2013-4-19,82.7,62.6,41.5,48.9,38.2,24.2,63,42,28,30.09,29.93,21,2,21,0.00
2013-4-20,82.2,64.5,46.4,47.5,39.2,31.4,70,41,23,29.96,29.85,31,5,31,0.00
2013-4-21,87.8,67.1,44.8,46.5,38.0,29.0,67,37,20,29.92,29.81,30,4,30,0.00
2013-4-22,87.1,70.0,50.5,44.9,38.2,31.9,54,33,19,29.86,29.73,26,5,26,0.00
2013-4-23,82.7,69.5,55.4,41.3,32.1,24.8,41,26,17,29.84,29.71,48,9,48,0.00
2013-4-24,76.6,59.8,43.5,47.7,38.1,25.7,65,46,29,29.79,29.68,41,6,41,0.00
2013-4-25,71.6,59.2,50.9,49.5,44.4,38.9,72,59,45,29.98,29.78,24,12,24,0.00
2013-4-26,77.5,61.0,51.2,52.4,44.7,37.6,72,56,39,30.08,29.98,18,5,18,0.00
2013-4-27,84.7,63.3,46.7,54.7,43.9,35.7,73,52,32,30.08,29.92,19,3,19,0.00
2013-4-28,90.5,68.2,45.8,54.0,44.3,30.8,69,44,28,29.92,29.76,19,2,19,0.00
2013-4-29,91.4,73.5,53.2,52.3,44.6,37.2,61,37,24,29.79,29.65,35,7,35,0.00
2013-4-30,84.5,69.2,50.9,47.3,35.7,23.4,66,33,15,29.73,29.65,51,8,51,0.00
2013-5-1,84.9,72.7,60.8,40.2,30.1,22.6,25,21,17,29.97,29.69,49,14,49,2.08
2013-5-2,91.6,73.5,54.5,42.1,31.7,23.4,32,22,16,30.05,29.96,34,7,34,0.02
2013-5-3,94.1,72.8,50.3,44.4,33.7,23.8,41,25,15,29.97,29.68,27,2,27,0.06
2013-5-4,89.8,71.7,53.2,43.1,35.1,26.1,45,27,18,29.68,29.44,39,7,39,0.06
2013-5-5,72.1,62.9,53.6,47.2,42.5,36.7,58,48,40,29.68,29.45,22,8,22,0.02
2013-5-6,68.0,61.9,57.0,51.6,46.1,40.5,69,56,45,29.83,29.67,21,3,21,1.08
2013-5-7,73.0,62.4,52.9,50.5,45.8,40.4,73,55,41,29.91,29.82,21,4,21,0.04
2013-5-8,71.0,58.9,50.9,48.9,43.7,38.6,72,58,41,30.01,29.90,26,7,26,0.00
2013-5-9,72.1,59.7,53.0,50.9,45.6,41.3,71,60,46,30.04,29.95,19,8,19,0.00
2013-5-10,78.4,62.6,52.1,54.3,47.4,40.5,75,59,43,30.04,29.97,20,7,20,0.00
2013-5-11,92.5,70.9,50.5,58.6,47.4,38.3,72,46,25,30.01,29.91,20,3,20,0.00
2013-5-12,87.8,70.9,53.0,53.6,44.8,35.0,58,41,25,30.01,29.91,23,6,23,0.00
2013-5-13,85.4,67.8,51.8,53.6,44.5,33.8,55,44,30,29.97,29.83,20,5,20,0.00
2013-5-14,78.8,64.2,52.3,52.9,44.7,38.2,65,50,37,29.88,29.79,23,8,23,0.00
2013-5-15,69.4,58.2,47.3,45.4,41.5,35.4,71,55,36,29.93,29.85,26,11,26,0.00
2013-5-16,70.1,58.5,52.3,53.2,47.4,42.7,80,67,48,29.90,29.84,30,12,30,0.00
2013-5-17,69.8,58.4,49.4,45.1,42.2,35.7,74,56,39,29.94,29.82,28,11,28,0.00
2013-5-18,76.1,60.4,46.4,48.4,42.8,32.9,81,54,37,29.99,29.92,21,5,21,0.02
2013-5-19,86.0,67.3,47.1,46.7,41.8,34.4,71,43,22,29.98,29.86,26,6,26,0.00
2013-5-20,90.5,70.9,49.3,45.2,37.6,30.5,53,32,18,29.89,29.80,25,6,25,0.00
2013-5-21,70.0,59.2,50.5,46.4,40.0,33.0,64,50,34,29.86,29.77,31,11,31,0.00
2013-5-22,68.9,55.0,41.2,38.4,33.4,27.6,65,47,24,29.86,29.78,28,7,28,0.00
2013-5-23,71.2,56.9,46.0,44.0,39.7,34.7,71,54,37,29.87,29.76,28,9,28,0.00
2013-5-24,74.8,58.3,43.0,43.3,36.6,28.8,60,46,27,29.86,29.81,27,8,27,0.00
2013-5-25,68.5,56.1,45.8,44.2,40.1,32.8,72,56,38,29.91,29.81,51,10,51,0.00
2013-5-26,70.0,59.6,52.3,49.0,46.5,43.6,77,63,47,29.99,29.90,29,14,29,0.00
2013-5-27,64.4,57.8,50.7,51.6,47.2,41.2,75,67,60,29.99,29.86,23,10,23,0.00
2013-5-28,71.9,63.1,56.8,54.0,50.3,44.7,78,64,46,29.87,29.79,51,10,51,0.00
2013-5-29,72.5,62.0,53.8,52.4,47.2,40.2,69,59,45,29.83,29.78,24,10,24,0.00
2013-5-30,79.7,62.3,45.8,48.3,41.7,35.2,71,49,31,29.85,29.77,22,6,22,0.00
2013-5-31,92.6,70.2,48.2,48.8,41.0,32.5,61,38,18,29.88,29.79,25,4,25,0.00
2013-6-1,98.2,76.8,53.9,52.0,43.1,31.7,50,32,19,29.81,29.65,30,6,30,0.00
2013-6-2,88.9,73.0,58.3,53.5,46.0,36.5,61,39,28,29.67,29.55,20,5,20,0.00
2013-6-3,84.7,67.8,52.9,53.1,46.0,36.3,58,46,34,29.71,29.58,22,7,22,0.00
2013-6-4,79.1,64.8,53.8,53.6,47.3,41.3,69,54,39,29.81,29.70,25,10,25,0.00
2013-6-5,80.0,64.5,54.8,53.4,47.5,42.1,69,55,40,29.86,29.78,20,9,20,0.00
2013-6-6,86.5,68.3,52.9,57.0,49.8,41.4,70,53,36,29.81,29.71,18,7,18,0.00
2013-6-7,101.6,77.3,54.8,63.4,52.9,42.6,69,46,26,29.75,29.60,25,4,25,0.02
2013-6-8,107.8,82.2,64.4,62.8,52.4,42.4,52,37,23,29.66,29.52,27,7,27,0.00
2013-6-9,80.2,68.6,59.3,56.1,50.8,46.8,64,53,42,29.74,29.65,30,14,30,0.00
2013-6-10,75.5,64.8,56.3,52.5,48.6,43.6,69,56,44,29.81,29.68,26,11,26,0.00
2013-6-11,82.9,67.0,54.5,56.0,49.3,41.3,67,54,39,29.86,29.78,18,5,18,0.00
2013-6-12,82.4,66.6,51.6,48.7,42.9,37.8,65,44,27,29.86,29.76,24,7,24,0.00
2013-6-13,82.9,64.7,48.2,49.4,42.2,34.2,61,46,29,29.96,29.84,22,6,22,0.00
2013-6-14,88.9,71.7,50.5,44.8,39.2,32.0,55,33,19,29.87,29.71,24,6,24,0.00
2013-6-15,79.5,64.6,51.4,50.2,42.0,30.1,70,45,34,29.87,29.69,24,6,25,0.00
2013-6-16,83.1,65.5,49.4,50.4,44.3,36.8,68,48,30,29.96,29.85,25,7,28,0.00
2013-6-17,75.9,63.5,53.2,52.8,47.1,39.7,72,56,40,29.96,29.90,25,10,27,0.00
2013-6-18,69.2,60.9,53.8,49.1,46.6,44.4,75,61,44,29.90,29.85,29,15,32,0.00
2013-6-19,75.7,62.4,48.9,48.3,44.3,38.9,72,53,35,29.92,29.86,22,7,46,0.00
2013-6-20,81.3,64.6,48.7,49.6,43.0,35.5,64,47,30,29.88,29.82,22,5,22,0.00
2013-6-21,85.1,67.6,48.5,50.1,42.0,34.2,58,41,22,29.85,29.80,22,5,22,0.00
2013-6-22,90.3,71.0,52.3,49.0,43.0,33.7,61,39,21,29.81,29.73,25,6,25,0.00
2013-6-23,70.7,63.5,57.2,56.6,51.7,43.3,76,66,51,29.76,29.68,25,11,25,0.00
2013-6-24,70.0,65.1,61.1,57.8,54.9,51.9,78,69,62,29.78,29.66,18,5,18,0.00
2013-6-25,80.8,71.0,62.4,61.7,57.3,52.4,71,62,51,29.86,29.75,26,8,26,0.00
2013-6-26,87.8,74.6,61.5,62.2,57.3,51.0,74,56,41,29.93,29.84,19,6,19,0.00
2013-6-27,94.3,77.2,59.3,61.4,55.0,46.8,69,48,33,29.95,29.89,23,6,23,0.00
2013-6-28,102.2,83.8,62.8,61.9,53.2,44.8,56,37,23,29.92,29.77,24,4,24,0.00
2013-6-29,104.3,86.2,65.6,60.2,51.4,41.8,47,32,20,29.82,29.68,21,4,21,0.00
2013-6-30,100.7,83.8,67.4,60.1,51.2,42.6,47,34,23,29.74,29.65,21,5,21,0.00
2013-7-1,101.8,83.8,64.9,58.2,51.7,44.2,54,35,20,29.74,29.68,21,4,21,0.00
2013-7-2,104.7,86.8,71.6,63.6,54.8,46.3,49,35,25,29.80,29.71,20,6,20,0.00
2013-7-3,102.4,82.6,65.8,62.9,54.8,46.7,57,40,26,29.80,29.64,21,5,21,0.00
2013-7-4,102.7,86.8,73.2,61.1,55.0,47.5,50,35,24,29.67,29.56,25,7,25,0.00
2013-7-5,80.8,69.5,59.5,54.0,48.0,42.1,61,47,35,29.67,29.60,30,13,30,0.00
2013-7-6,85.1,69.0,55.0,54.4,48.8,43.4,68,50,34,29.68,29.61,20,7,20,0.00
2013-7-7,89.4,70.0,52.7,53.3,46.6,38.3,76,46,24,29.74,29.65,18,5,18,0.00
2013-7-8,92.1,72.5,54.8,53.8,47.1,39.4,66,43,24,29.85,29.73,16,5,16,0.00
2013-7-9,101.1,79.9,58.4,56.1,47.3,39.2,59,35,18,29.90,29.79,17,3,17,0.00
2013-7-10,93.4,75.6,60.2,52.9,44.9,37.4,57,35,20,29.86,29.76,22,6,22,0.00
2013-7-11,84.5,68.6,56.8,53.3,47.1,38.9,66,48,32,29.81,29.75,20,8,21,0.00
2013-7-12,86.5,69.1,52.0,52.7,45.1,35.9,75,45,26,29.81,29.75,21,6,22,0.00
2013-7-13,91.7,73.1,53.0,49.9,42.1,34.1,60,35,20,29.84,29.76,19,4,19,0.00
2013-7-14,89.6,71.5,55.4,52.1,42.9,32.9,65,38,20,29.87,29.76,21,6,21,0.00
2013-7-15,80.8,65.6,55.9,52.7,46.9,38.7,65,52,37,29.79,29.71,21,9,21,0.00
2013-7-16,76.1,65.0,56.8,52.4,49.0,45.3,69,57,43,29.91,29.73,26,12,26,0.00
2013-7-17,84.5,68.9,59.0,55.0,50.3,44.8,72,53,34,29.97,29.89,20,7,20,0.00
2013-7-18,91.6,71.6,53.9,51.5,45.4,39.6,70,44,18,29.93,29.81,21,5,21,0.00
2013-7-19,94.4,73.1,55.0,56.9,47.6,37.6,70,42,24,29.82,29.68,50,5,50,0.00
2013-7-20,94.1,73.4,56.5,58.8,50.1,41.5,68,46,28,29.73,29.60,17,6,18,0.00
2013-7-21,92.8,73.9,56.6,57.5,49.8,40.9,70,45,26,29.74,29.63,20,7,20,0.00
2013-7-22,87.8,72.7,59.7,56.1,50.9,46.1,66,48,29,29.83,29.73,17,6,17,0.00
2013-7-23,89.8,76.6,66.5,56.3,50.4,43.2,57,41,26,29.87,29.81,20,7,20,0.00
2013-7-24,95.2,77.4,61.1,53.0,47.4,41.9,61,38,20,29.86,29.77,21,7,21,0.00
2013-7-25,90.5,75.9,62.6,55.4,47.6,40.5,54,38,27,29.90,29.79,25,7,25,0.00
2013-7-26,91.6,73.4,58.1,53.9,48.7,42.2,72,44,25,29.96,29.87,23,8,23,0.00
2013-7-27,89.2,72.1,58.4,57.7,50.1,44.1,74,48,31,29.90,29.73,19,7,31,0.00
2013-7-28,86.3,69.6,57.4,56.1,50.0,44.0,68,51,35,29.75,29.67,50,8,50,0.00
2013-7-29,82.9,66.4,53.6,54.2,48.2,42.6,70,53,35,29.87,29.70,50,8,50,0.00
2013-7-30,87.8,68.8,55.4,55.3,49.0,42.7,70,52,31,29.97,29.86,50,6,50,0.00
2013-7-31,84.7,68.6,56.8,52.6,48.0,43.9,69,50,28,29.95,29.88,25,10,25,0.00
2013-8-1,79.5,65.1,53.0,50.7,45.6,40.2,68,51,34,29.94,29.84,19,8,50,0.00
2013-8-2,85.1,66.5,50.0,51.3,44.5,36.3,76,47,27,29.84,29.77,16,5,19,0.00
2013-8-3,86.0,68.1,52.5,54.9,47.4,38.4,71,50,30,29.84,29.77,17,5,19,0.00
2013-8-4,83.5,66.2,56.3,54.1,48.3,41.6,76,54,32,29.87,29.81,18,8,50,0.00
2013-8-5,84.4,67.3,56.8,55.2,49.4,42.5,71,55,35,29.89,29.81,19,9,21,0.00
2013-8-6,78.2,64.2,56.1,54.3,49.4,44.2,72,59,42,29.90,29.83,27,11,27,0.00
2013-8-7,77.9,65.3,57.9,53.9,50.2,46.4,72,59,43,29.96,29.89,26,12,26,0.00
2013-8-8,79.3,65.5,57.7,55.3,50.6,45.5,73,60,42,29.89,29.80,23,10,23,0.00
2013-8-9,74.8,62.0,55.9,53.8,49.2,46.3,74,63,46,29.85,29.78,21,9,21,0.00
2013-8-10,80.8,66.4,57.2,57.2,51.3,46.4,76,60,39,29.91,29.85,24,10,24,0.00
2013-8-11,83.6,68.1,56.6,56.1,51.5,44.1,82,58,36,29.89,29.81,21,8,21,0.00
2013-8-12,88.0,69.3,51.8,53.0,46.3,40.5,74,47,22,29.86,29.80,22,5,22,0.00
2013-8-13,94.6,72.9,53.0,51.6,44.3,35.4,59,38,20,29.85,29.78,21,3,21,0.00
2013-8-14,89.0,70.9,54.1,54.4,46.8,36.5,63,44,27,29.85,29.79,22,6,22,0.00
2013-8-15,89.0,73.0,60.4,61.4,55.0,45.4,72,55,36,29.85,29.79,21,5,21,0.00
2013-8-16,91.0,73.9,59.5,59.7,52.5,42.9,73,49,30,29.87,29.81,23,6,23,0.00
2013-8-17,85.6,70.1,58.6,56.3,49.5,40.9,72,49,34,29.86,29.75,24,5,24,0.00
2013-8-18,98.2,76.8,56.8,59.5,52.1,43.2,69,45,24,29.76,29.66,15,1,15,0.00
2013-8-19,102.4,81.6,65.1,60.4,51.4,43.6,52,36,22,29.79,29.67,22,5,22,0.00
2013-8-20,92.5,75.9,62.2,57.4,52.0,44.0,69,45,30,29.77,29.68,20,7,20,0.00
2013-8-21,86.0,68.7,56.8,55.3,49.1,42.3,70,51,34,29.81,29.71,19,6,19,0.00
2013-8-22,80.6,65.2,55.4,54.7,48.9,41.9,75,57,40,29.84,29.76,24,8,24,0.00
2013-8-23,81.1,66.6,57.2,53.7,50.1,44.9,76,57,36,29.80,29.69,19,8,19,0.00
2013-8-24,81.5,67.0,54.1,55.1,50.8,44.0,82,57,40,29.78,29.71,26,8,26,0.00
2013-8-25,87.8,71.4,62.2,60.8,55.9,50.6,78,60,36,29.82,29.76,25,8,25,0.00
2013-8-26,82.9,69.3,61.7,55.2,52.2,45.3,73,56,36,29.87,29.78,22,8,22,0.00
2013-8-27,88.7,69.6,54.3,54.7,48.9,41.4,66,49,29,29.78,29.69,22,5,22,0.00
2013-8-28,87.4,70.5,57.7,59.6,53.1,47.1,73,56,35,29.82,29.72,20,6,20,0.00
2013-8-29,86.5,71.4,62.2,60.6,55.8,49.3,75,59,38,29.93,29.81,21,8,21,0.00
2013-8-30,94.6,75.2,57.7,59.2,53.1,46.4,77,49,27,29.91,29.79,20,3,20,0.00
2013-8-31,88.0,72.7,58.4,53.7,48.7,41.6,66,44,29,29.85,29.77,23,6,23,0.00
2013-9-1,86.7,71.4,61.0,56.5,51.9,46.5,69,52,35,29.82,29.75,23,9,23,0.00
2013-9-2,84.0,70.6,63.8,59.9,56.2,53.5,78,61,39,29.84,29.76,25,8,25,0.00
2013-9-3,79.9,68.4,59.7,55.3,52.2,49.7,73,58,36,29.87,29.79,27,10,27,0.00
2013-9-4,79.7,67.4,56.6,55.3,51.8,46.7,77,59,36,29.91,29.82,22,8,22,0.00
2013-9-5,80.6,67.4,59.9,55.0,51.8,46.8,74,59,37,29.89,29.82,25,10,25,0.00
2013-9-6,91.0,71.6,50.9,52.7,46.9,39.3,76,45,25,29.86,29.71,26,5,26,0.00
2013-9-7,98.0,77.7,56.8,53.1,43.9,34.4,51,32,19,29.76,29.66,21,2,21,0.00
2013-9-8,98.8,78.3,58.6,56.7,46.1,34.5,54,33,22,29.75,29.63,17,2,17,0.00
2013-9-9,97.7,78.1,61.1,55.9,45.3,36.6,47,32,23,29.69,29.58,24,4,24,0.00
2013-9-10,85.6,71.1,61.0,57.0,50.0,38.7,65,48,33,29.76,29.61,28,8,28,0.00
2013-9-11,79.0,66.5,56.8,55.7,51.9,46.9,73,60,44,29.87,29.75,24,9,24,0.00
2013-9-12,83.6,69.1,61.7,59.8,54.6,50.0,77,61,42,29.86,29.76,19,8,19,0.00
2013-9-13,84.4,67.6,57.5,56.8,52.1,46.8,80,59,38,29.78,29.64,22,8,22,0.00
2013-9-14,74.5,63.4,56.3,56.0,51.1,46.5,80,65,51,29.71,29.62,20,9,20,0.00
2013-9-15,80.0,65.1,54.8,56.3,51.4,45.6,78,62,43,29.74,29.65,22,9,22,0.00
2013-9-16,84.9,68.4,59.0,56.4,53.2,46.8,79,60,35,29.77,29.67,25,8,25,0.00
2013-9-17,74.1,64.1,58.4,52.7,50.0,44.8,74,61,44,29.75,29.69,27,11,27,0.00
2013-9-18,85.6,66.2,49.3,48.7,43.5,36.0,74,47,25,29.78,29.70,25,5,25,0.00
2013-9-19,90.1,69.3,48.5,48.7,39.9,30.9,53,36,22,29.74,29.63,19,2,19,0.00
2013-9-20,73.9,63.8,52.7,56.3,46.4,31.9,72,54,35,29.74,29.63,30,8,30,0.00
2013-9-21,67.6,61.6,55.6,54.9,51.5,47.8,79,69,54,29.76,29.67,23,7,23,0.00
2013-9-22,73.9,61.7,52.5,54.1,49.3,44.4,82,65,45,29.87,29.75,19,4,19,0.00
2013-9-23,82.9,65.6,50.3,56.9,49.7,41.2,71,58,38,29.89,29.80,19,2,19,0.00
2013-9-24,74.3,63.0,54.8,53.8,49.0,43.8,76,61,43,29.86,29.76,28,9,28,0.00
2013-9-25,69.4,59.4,51.2,46.5,43.5,39.3,72,57,40,29.79,29.68,27,8,27,0.00
2013-9-26,74.8,58.6,43.7,42.2,37.3,33.1,71,48,27,29.83,29.67,34,4,34,0.00
2013-9-27,77.9,62.2,48.5,40.1,35.8,31.9,55,39,23,29.97,29.83,23,3,23,0.00
2013-9-28,85.4,64.3,44.9,43.9,36.2,27.4,61,38,19,29.95,29.87,18,1,18,0.00
2013-9-29,78.8,64.6,52.5,54.2,48.5,39.3,75,57,42,29.98,29.91,19,3,19,0.00
2013-9-30,76.4,66.1,59.3,57.5,52.6,46.6,72,62,51,29.94,29.84,16,4,16,0.00
2013-10-1,74.8,61.6,50.9,50.1,45.2,39.7,76,56,38,29.87,29.79,18,4,18,0.00
2013-10-2,78.1,60.8,46.7,48.2,41.2,34.4,71,50,32,29.87,29.78,18,2,18,0.00
2013-10-3,72.1,60.2,44.8,37.7,33.8,29.7,65,40,24,29.92,29.80,43,14,46,0.17
2013-10-4,79.1,66.4,57.5,35.8,31.6,26.6,34,28,20,29.97,29.81,48,14,48,1.87
2013-10-5,82.9,65.7,47.6,37.3,29.9,21.1,39,27,19,30.08,29.97,26,5,26,0.00
2013-10-6,83.5,64.4,45.1,39.3,30.5,20.1,39,29,20,30.00,29.87,19,3,19,0.00
2013-10-7,84.7,65.6,49.1,40.2,31.7,24.1,46,29,19,29.87,29.75,19,2,19,0.00
2013-10-8,78.1,61.4,46.4,42.9,33.8,24.3,46,36,28,29.78,29.57,24,4,24,0.00
2013-10-9,70.3,56.9,47.1,43.9,37.0,30.7,66,48,37,29.61,29.47,50,3,50,0.00
2013-10-10,75.5,59.0,45.7,43.5,35.5,28.7,58,43,28,29.86,29.61,42,1,42,0.00
2013-10-11,74.5,57.3,43.3,47.6,38.0,27.9,73,49,33,29.93,29.84,10,1,10,0.00
2013-10-12,74.6,56.3,40.4,44.4,35.8,26.1,69,48,29,29.85,29.77,18,2,18,0.00
2013-10-13,75.2,57.5,42.6,44.0,35.8,29.5,73,46,28,29.92,29.77,50,3,50,0.00
2013-10-14,75.2,58.1,41.7,40.3,32.8,25.6,60,40,27,29.98,29.88,25,5,25,0.00
2013-10-15,78.8,59.8,41.7,38.1,30.1,21.3,49,34,23,29.92,29.84,27,4,27,0.00
2013-10-16,80.6,61.2,43.1,40.9,30.6,19.8,46,32,23,29.97,29.86,13,2,13,0.00
2013-10-17,83.8,62.0,44.0,38.7,29.9,21.2,47,31,19,29.95,29.84,11,1,11,0.00
2013-10-18,85.1,62.9,44.2,41.8,30.8,18.7,46,31,22,29.92,29.84,10,1,10,0.00
2013-10-19,84.2,63.4,44.0,42.6,33.1,21.0,49,33,22,29.95,29.88,13,2,13,0.00
2013-10-20,88.0,63.3,43.3,44.6,33.5,21.4,51,34,20,29.89,29.78,12,1,12,0.00
2013-10-21,79.7,60.4,44.2,46.6,36.4,23.9,62,42,31,29.86,29.78,9,1,9,0.00
2013-10-22,84.4,61.6,42.4,46.9,37.4,26.0,64,42,27,29.87,29.79,11,1,11,0.00
2013-10-23,80.8,59.1,43.1,50.7,38.5,26.2,74,48,34,29.82,29.75,12,1,12,0.00
2013-10-24,62.6,54.5,47.6,46.7,42.0,34.7,73,63,53,29.95,29.82,50,3,50,0.00
2013-10-25,80.0,59.0,45.1,47.9,42.0,33.3,74,56,30,30.02,29.94,11,1,11,0.00
2013-10-26,80.9,59.3,40.6,48.4,38.9,30.1,74,50,29,30.00,29.88,12,2,12,0.00
2013-10-27,62.2,52.3,41.9,45.9,37.6,24.5,76,58,43,29.88,29.51,50,7,50,0.00
2013-10-28,61.7,53.4,48.0,43.9,41.3,38.5,76,64,46,29.71,29.51,50,6,50,0.00
2013-10-29,65.1,55.4,46.4,44.8,40.8,32.3,69,58,45,29.89,29.71,12,2,12,0.00
2013-10-30,71.2,52.2,38.8,45.8,36.0,26.9,71,55,40,30.00,29.89,13,1,13,0.00
2013-10-31,71.2,54.0,38.6,44.3,34.8,25.7,67,49,35,30.02,29.93,13,1,13,0.00
2013-11-1,71.6,56.5,39.5,45.3,36.1,25.1,63,47,38,30.00,29.87,13,3,13,0.00
2013-11-2,74.3,55.5,39.4,46.5,36.2,25.0,63,49,34,29.87,29.76,13,2,13,0.00
2013-11-3,64.0,53.9,44.6,34.7,28.1,21.1,64,38,26,29.90,29.76,50,3,50,0.02
2013-11-4,66.7,52.8,36.5,30.8,25.8,18.3,56,36,25,29.91,29.74,19,6,22,0.13
2013-11-5,73.6,59.6,47.6,35.5,29.1,21.7,37,32,25,30.07,29.91,13,2,13,0.10
2013-11-6,68.0,56.0,40.6,38.4,29.9,19.7,48,37,31,30.12,30.02,13,3,13,0.06
2013-11-7,76.6,58.5,46.0,39.4,31.8,25.6,50,37,23,30.03,29.92,10,0,10,0.08
2013-11-8,79.3,57.6,41.5,46.6,34.6,22.3,53,43,29,29.93,29.83,11,1,11,0.00
2013-11-9,74.3,56.0,41.0,45.3,36.2,26.3,62,48,34,29.88,29.81,14,2,14,0.00
2013-11-10,71.8,53.8,40.1,45.5,35.9,26.4,68,52,33,29.97,29.86,50,1,50,0.00
2013-11-11,66.4,54.1,42.2,47.0,38.7,28.7,74,57,45,30.02,29.92,50,3,50,0.00
2013-11-12,73.4,59.1,46.6,46.2,39.6,28.2,62,49,36,30.11,29.99,12,1,12,0.00
2013-11-13,80.6,57.1,40.6,46.3,35.8,25.4,62,46,28,30.10,29.95,11,0,11,0.00
2013-11-14,71.0,53.4,42.2,49.2,38.6,28.2,77,58,44,29.96,29.71,11,1,11,0.00
2013-11-15,68.9,51.0,38.6,43.1,33.6,24.6,77,53,30,29.71,29.59,11,2,13,0.00
2013-11-16,63.5,49.2,37.4,43.1,34.4,23.6,72,57,40,29.77,29.60,12,2,12,0.00
2013-11-17,69.1,52.5,43.0,46.2,38.8,31.8,75,60,42,29.92,29.76,9,0,9,0.00
2013-11-18,60.1,48.8,37.6,43.7,36.4,27.0,76,62,50,29.98,29.90,13,2,13,0.00
2013-11-19,61.7,53.5,45.1,48.7,43.2,34.5,75,68,60,29.94,29.80,11,1,11,0.00
2013-11-20,61.5,55.6,51.4,53.4,48.5,45.2,82,77,72,29.80,29.69,17,1,17,0.00
2013-11-21,56.8,51.1,46.0,46.9,37.0,27.0,81,60,43,29.82,29.73,37,10,37,0.00
2013-11-22,65.3,53.1,46.7,34.0,27.3,20.7,51,38,27,29.86,29.76,25,11,32,0.00
2013-11-23,64.6,49.4,37.7,40.3,31.9,24.7,65,51,39,29.94,29.80,12,1,12,0.00
2013-11-24,65.3,47.0,33.4,42.8,33.0,23.5,74,59,43,30.09,29.92,11,1,11,0.00
2013-11-25,62.9,46.6,33.8,43.4,33.6,23.8,76,61,46,30.16,30.07,12,1,12,0.00
2013-11-26,61.3,49.5,39.9,41.5,36.8,29.7,78,62,47,30.10,29.88,14,2,14,0.00
2013-11-27,67.6,52.9,43.7,48.3,40.6,34.6,76,63,48,29.88,29.71,14,3,14,0.00
2013-11-28,66.9,52.9,42.4,44.0,38.0,30.0,73,57,42,29.91,29.71,17,2,17,0.00
2013-11-29,71.8,51.0,36.1,45.0,35.1,26.1,73,56,38,30.05,29.90,10,1,11,0.00
2013-11-30,68.9,50.0,36.7,45.9,35.0,25.4,72,57,41,30.10,30.02,12,0,12,0.00
2013-12-1,70.1,50.7,36.3,44.7,35.1,25.7,74,56,39,30.17,30.05,15,2,15,0.00
2013-12-2,65.5,50.0,36.5,45.5,36.8,25.7,78,61,45,30.06,29.78,14,3,14,0.00
2013-12-3,53.4,47.7,37.0,47.6,34.4,21.6,81,60,47,29.78,29.67,24,6,24,0.00
2013-12-4,48.9,38.2,25.1,21.6,17.3,8.2,55,43,32,29.89,29.74,19,3,19,0.00
2013-12-5,50.0,33.3,22.1,21.8,13.1,6.7,54,44,33,29.98,29.85,16,2,16,0.00
2013-12-6,50.0,37.6,22.4,39.3,22.4,7.1,80,55,41,30.00,29.72,50,3,50,0.00
2013-12-7,48.9,40.7,30.7,39.5,28.0,19.1,80,61,41,30.03,29.72,25,6,30,0.00
2013-12-8,43.0,33.0,26.0,24.5,19.3,13.7,69,57,46,30.12,30.00,20,3,20,0.00
2013-12-9,44.6,34.8,25.5,25.5,18.9,13.4,61,52,44,30.21,30.08,16,4,16,0.00
2013-12-10,48.7,37.0,26.6,28.7,22.5,14.2,64,56,44,30.19,30.00,18,3,18,0.00
2013-12-11,51.4,40.0,27.5,31.0,25.2,16.5,66,56,45,30.07,29.97,19,4,19,0.00
2013-12-12,59.2,43.6,30.9,35.0,27.0,18.7,64,52,38,30.09,30.00,13,2,14,0.00
2013-12-13,59.5,41.3,26.9,34.5,24.7,16.0,71,53,37,30.15,30.02,14,1,14,0.00
2013-12-14,59.0,42.4,28.0,35.7,25.6,15.5,66,52,39,30.22,30.10,15,2,15,0.00
2013-12-15,64.2,47.6,33.2,36.6,30.2,19.8,66,52,35,30.18,30.06,17,3,17,0.00
2013-12-16,66.2,53.2,44.6,38.3,33.5,27.0,57,48,35,30.08,29.98,18,5,18,0.00
2013-12-17,61.1,49.9,37.0,38.7,32.4,24.0,66,51,42,30.01,29.86,15,3,15,0.00
2013-12-18,63.1,49.9,39.2,39.6,35.0,28.1,72,57,38,29.87,29.58,35,3,35,0.00
2013-12-19,56.8,47.0,35.6,39.8,29.6,19.4,75,53,34,29.75,29.53,41,10,41,0.14
2013-12-20,61.5,48.3,36.8,24.8,17.8,14.8,43,30,19,29.85,29.72,34,4,34,0.09
2013-12-21,68.5,46.1,31.4,38.7,24.8,13.4,53,44,33,29.91,29.77,10,0,10,0.06
2013-12-22,68.7,46.7,32.3,38.0,27.2,18.3,65,48,32,30.12,29.90,12,1,12,0.08
2013-12-23,59.9,47.2,33.4,37.0,29.4,19.4,67,50,41,30.22,30.09,11,2,11,0.00
2013-12-24,70.7,49.0,34.5,40.6,30.0,21.3,66,49,34,30.16,30.05,11,0,11,0.00
2013-12-25,60.6,47.4,36.1,39.2,30.8,20.6,62,53,44,30.14,30.04,13,2,13,0.00
2013-12-26,65.8,48.9,35.0,40.1,30.8,21.7,69,51,37,30.09,30.02,10,1,10,0.00
2013-12-27,59.3,46.5,33.4,40.0,31.8,20.6,69,57,47,30.07,29.93,11,2,11,0.00
2013-12-28,71.0,46.6,28.7,35.6,25.9,17.7,71,47,26,29.97,29.88,36,2,36,0.00
2013-12-29,65.8,52.6,38.6,34.6,26.0,19.9,47,36,29,30.01,29.92,17,4,17,0.00
2013-12-30,62.0,45.2,31.1,37.2,26.4,15.5,61,48,39,30.09,29.98,11,1,11,0.00
2013-12-31,62.6,44.3,31.4,37.1,26.4,18.1,70,50,37,30.09,29.99,12,1,12,0.00
2014-1-1,66.2,46.2,28.9,34.0,24.5,14.7,63,44,28,30.04,29.95,12,1,12,0.00
2014-1-2,66.2,48.0,34.3,36.3,27.3,18.0,57,45,32,30.01,29.87,13,2,13,0.00